Hourly Weather Rechytsa

Today, 22 September, Tuesday

Time Temperature Precipitation Wind Pressure Humidity
00:00 +12°C° 0 mm 2 mps 754 mmHg 74%
01:00 +10°C° 0 mm 2 mps 754 mmHg 74%
02:00 +10°C° 0 mm 2 mps 754 mmHg 75%
03:00 +10°C° 0 mm 2 mps 754 mmHg 78%
04:00 +10°C° 0 mm 2 mps 754 mmHg 81%
05:00 +9°C° 0 mm 2 mps 754 mmHg 84%
06:00 +12°C° 0 mm 2 mps 754 mmHg 79%
07:00 +13°C° 0 mm 2 mps 754 mmHg 75%
08:00 +14°C° 0 mm 2 mps 754 mmHg 67%
09:00 +17°C° 0 mm 2 mps 754 mmHg 60%
10:00 +19°C° 0 mm 3 mps 754 mmHg 52%
11:00 +21°C° 0 mm 3 mps 754 mmHg 45%
12:00 +22°C° 0 mm 3 mps 754 mmHg 42%
13:00 +24°C° 0 mm 3 mps 753 mmHg 39%
14:00 +25°C° 0 mm 4 mps 753 mmHg 36%
15:00 +24°C° 0 mm 3 mps 753 mmHg 42%
16:00 +22°C° 0 mm 3 mps 752 mmHg 47%
17:00 +20°C° 0 mm 2 mps 752 mmHg 52%
18:00 +19°C° 0 mm 2 mps 752 mmHg 56%
19:00 +17°C° 0 mm 2 mps 752 mmHg 59%
20:00 +16°C° 0 mm 2 mps 752 mmHg 62%
21:00 +15°C° 0 mm 2 mps 752 mmHg 64%
22:00 +15°C° 0 mm 2 mps 752 mmHg 65%
23:00 +14°C° 0 mm 2 mps 752 mmHg 66%

Tomorrow, 23 September, Wednesday

Time Temperature Precipitation Wind Pressure Humidity
00:00 +14°C° 0 mm 2 mps 752 mmHg 66%
01:00 +14°C° 0 mm 2 mps 752 mmHg 66%
02:00 +13°C° 0 mm 2 mps 752 mmHg 66%
03:00 +13°C° 0 mm 2 mps 752 mmHg 65%
04:00 +12°C° 0 mm 2 mps 752 mmHg 64%
05:00 +12°C° 0 mm 2 mps 752 mmHg 63%
06:00 +13°C° 0 mm 2 mps 752 mmHg 59%
07:00 +14°C° 0 mm 2 mps 752 mmHg 55%
08:00 +15°C° 0 mm 2 mps 752 mmHg 51%
09:00 +17°C° 0 mm 3 mps 751 mmHg 46%
10:00 +20°C° 0 mm 3 mps 751 mmHg 41%
11:00 +22°C° 0 mm 3 mps 751 mmHg 36%
12:00 +22°C° 0 mm 3 mps 751 mmHg 34%
13:00 +23°C° 0 mm 4 mps 751 mmHg 32%
14:00 +25°C° 0 mm 4 mps 751 mmHg 29%
15:00 +24°C° 0 mm 3 mps 750 mmHg 34%
16:00 +21°C° 0 mm 3 mps 750 mmHg 39%
17:00 +20°C° 0 mm 2 mps 750 mmHg 44%
18:00 +18°C° 0 mm 2 mps 750 mmHg 46%
19:00 +17°C° 0 mm 2 mps 750 mmHg 47%
20:00 +15°C° 0 mm 2 mps 750 mmHg 48%
21:00 +14°C° 0 mm 2 mps 750 mmHg 48%
22:00 +14°C° 0 mm 2 mps 750 mmHg 48%
23:00 +13°C° 0 mm 2 mps 750 mmHg 48%

Day after tomorrow, 24 September, Thursday

Time Temperature Precipitation Wind Pressure Humidity
00:00 +13°C° 0 mm 2 mps 750 mmHg 48%
01:00 +13°C° 0 mm 2 mps 750 mmHg 49%
02:00 +12°C° 0 mm 2 mps 750 mmHg 49%
03:00 +12°C° 0 mm 2 mps 750 mmHg 48%
04:00 +10°C° 0 mm 2 mps 750 mmHg 48%
05:00 +10°C° 0 mm 2 mps 750 mmHg 47%
06:00 +11°C° 0 mm 3 mps 750 mmHg 46%
07:00 +12°C° 0 mm 3 mps 750 mmHg 45%
08:00 +14°C° 0 mm 3 mps 750 mmHg 43%
09:00 +17°C° 0 mm 3 mps 750 mmHg 40%
10:00 +19°C° 0 mm 3 mps 750 mmHg 37%
11:00 +21°C° 0 mm 3 mps 750 mmHg 34%
12:00 +22°C° 0 mm 3 mps 750 mmHg 32%
13:00 +24°C° 0 mm 3 mps 750 mmHg 31%
14:00 +25°C° 0 mm 4 mps 750 mmHg 30%
15:00 +24°C° 0 mm 3 mps 749 mmHg 35%
16:00 +22°C° 0 mm 3 mps 749 mmHg 41%
17:00 +20°C° 0 mm 2 mps 749 mmHg 47%
18:00 +19°C° 0 mm 2 mps 749 mmHg 48%
19:00 +18°C° 0 mm 2 mps 749 mmHg 49%
20:00 +16°C° 0 mm 2 mps 749 mmHg 51%
21:00 +16°C° 0 mm 2 mps 749 mmHg 51%
22:00 +15°C° 0 mm 2 mps 749 mmHg 52%
23:00 +15°C° 0 mm 2 mps 749 mmHg 52%

25 September, Friday

Time Temperature Precipitation Wind Pressure Humidity
00:00 +15°C° 0 mm 2 mps 749 mmHg 53%
01:00 +14°C° 0 mm 2 mps 749 mmHg 53%
02:00 +14°C° 0 mm 2 mps 749 mmHg 54%
03:00 +13°C° 0 mm 2 mps 749 mmHg 54%
04:00 +12°C° 0 mm 3 mps 748 mmHg 54%
05:00 +12°C° 0 mm 3 mps 748 mmHg 55%
06:00 +13°C° 0 mm 3 mps 748 mmHg 53%
07:00 +14°C° 0 mm 3 mps 748 mmHg 52%
08:00 +16°C° 0 mm 3 mps 748 mmHg 51%
09:00 +18°C° 0 mm 4 mps 748 mmHg 48%
10:00 +21°C° 0 mm 4 mps 748 mmHg 46%
11:00 +23°C° 0 mm 4 mps 748 mmHg 43%
12:00 +25°C° 0 mm 4 mps 747 mmHg 42%
13:00 +26°C° 0 mm 5 mps 747 mmHg 40%
14:00 +27°C° 0 mm 5 mps 747 mmHg 38%
15:00 +26°C° 0 mm 5 mps 747 mmHg 42%
16:00 +23°C° 0 mm 4 mps 746 mmHg 45%
17:00 +22°C° 0 mm 3 mps 746 mmHg 49%
18:00 +21°C° 0 mm 4 mps 746 mmHg 49%
19:00 +20°C° 0 mm 4 mps 746 mmHg 49%
20:00 +18°C° 0 mm 4 mps 746 mmHg 49%
21:00 +18°C° 0 mm 4 mps 746 mmHg 47%
22:00 +18°C° 0 mm 4 mps 746 mmHg 46%
23:00 +17°C° 0 mm 4 mps 746 mmHg 44%

26 September, Saturday

Time Temperature Precipitation Wind Pressure Humidity
00:00 +17°C° 0 mm 4 mps 746 mmHg 46%
01:00 +17°C° 0 mm 4 mps 745 mmHg 49%
02:00 +15°C° 0 mm 4 mps 745 mmHg 51%
03:00 +15°C° 0 mm 4 mps 745 mmHg 53%
04:00 +15°C° 0 mm 4 mps 745 mmHg 54%
05:00 +15°C° 0 mm 4 mps 745 mmHg 56%
06:00 +16°C° 0 mm 5 mps 745 mmHg 55%
07:00 +16°C° 0 mm 5 mps 745 mmHg 55%
08:00 +17°C° 0 mm 5 mps 745 mmHg 54%
09:00 +19°C° 0 mm 5 mps 745 mmHg 51%
10:00 +21°C° 0 mm 6 mps 745 mmHg 48%
11:00 +23°C° 0 mm 6 mps 745 mmHg 45%
12:00 +24°C° 0 mm 6 mps 745 mmHg 43%
13:00 +26°C° 0 mm 6 mps 745 mmHg 41%
14:00 +27°C° 0 mm 6 mps 745 mmHg 39%
15:00 +26°C° 0 mm 6 mps 744 mmHg 43%
16:00 +23°C° 0 mm 5 mps 744 mmHg 46%
17:00 +22°C° 0 mm 5 mps 744 mmHg 50%
18:00 +22°C° 0 mm 5 mps 744 mmHg 49%
19:00 +21°C° 0 mm 5 mps 744 mmHg 49%
20:00 +21°C° 0 mm 6 mps 744 mmHg 49%
21:00 +21°C° 0 mm 6 mps 744 mmHg 47%
22:00 +21°C° 0 mm 6 mps 744 mmHg 44%
23:00 +21°C° 0 mm 6 mps 743 mmHg 42%

27 September, Sunday

Time Temperature Precipitation Wind Pressure Humidity
00:00 +20°C° 0 mm 6 mps 744 mmHg 45%
01:00 +20°C° 0 mm 6 mps 744 mmHg 48%
02:00 +20°C° 0 mm 6 mps 744 mmHg 51%
03:00 +19°C° 0 mm 6 mps 744 mmHg 51%
04:00 +17°C° 0 mm 7 mps 744 mmHg 51%
05:00 +17°C° 0 mm 7 mps 744 mmHg 51%
06:00 +17°C° 0 mm 7 mps 744 mmHg 51%
07:00 +17°C° 0 mm 8 mps 744 mmHg 50%
08:00 +17°C° 0 mm 9 mps 744 mmHg 50%
09:00 +18°C° 0 mm 9 mps 744 mmHg 49%
10:00 +19°C° 0 mm 10 mps 743 mmHg 48%
11:00 +19°C° 0 mm 10 mps 743 mmHg 47%
12:00 +21°C° 0 mm 10 mps 743 mmHg 47%
13:00 +21°C° 0 mm 9 mps 743 mmHg 47%
14:00 +22°C° 0 mm 9 mps 742 mmHg 47%
15:00 +21°C° 0.2 mm 8 mps 742 mmHg 54%
16:00 +20°C° 0.2 mm 8 mps 742 mmHg 60%
17:00 +18°C° 0.2 mm 7 mps 742 mmHg 67%
18:00 +17°C° 0.3 mm 6 mps 742 mmHg 73%
19:00 +17°C° 0.3 mm 6 mps 742 mmHg 80%
20:00 +16°C° 0.3 mm 6 mps 742 mmHg 86%
21:00 +15°C° 0.1 mm 5 mps 743 mmHg 88%
22:00 +14°C° 0.1 mm 4 mps 743 mmHg 91%
23:00 +14°C° 0.1 mm 2 mps 744 mmHg 93%
Show more